Wind_Speed
3 4 5 6 7 8 10 11 12 14 14 14 15 16 17 18 20 21 21 21 22 23 25 27 27 28 28 28 30 31 31 31 31 31 31 31 32 33 34 34 34 34 33 33
4 5 6 6 7 7 9 11 13 14 15 15 16 16 17 18 19 20 21 23 23 24 24 26 27 28 29 28 29 31 31 31 31 32 32 33 33 33 34 34 34 35 34 34
5 6 6 7 7 8 9 11 12 14 15 16 17 17 18 19 20 21 22 23 24 25 25 27 28 29 29 30 30 31 31 31 32 32 32 32 33 33 34 34 34 34 35 34
6 7 7 8 8 9 10 11 12 13 15 16 17 18 18 19 20 21 22 23 24 25 26 26 28 29 30 30 31 31 32 32 33 32 33 33 34 34 34 34 35 35 36 36
8 8 8 8 9 9 10 11 12 13 14 15 17 19 18 19 20 21 23 24 24 25 26 27 27 28 30 30 31 32 32 33 34 34 34 34 34 34 33 34 35 37 37 38
9 9 10 10 11 11 11 12 13 14 15 16 17 19 20 19 20 21 22 23 24 25 25 26 27 28 29 30 31 32 32 33 33 34 34 35 34 34 34 34 36 37 37 38
11 11 12 12 12 12 13 14 14 15 16 16 17 19 20 20 21 21 22 23 24 25 26 27 28 29 30 30 31 31 32 33 33 33 34 35 35 35 35 36 36 37 37 37
14 13 13 14 14 14 15 16 16 17 17 17 18 19 19 20 21 22 23 24 25 26 27 28 28 29 30 31 32 32 33 33 33 34 34 35 35 35 36 36 36 38 37 37
16 15 16 16 16 16 16 17 18 19 19 18 19 19 18 20 21 22 24 25 26 27 28 29 30 31 31 32 33 34 35 35 35 35 36 36 37 37 37 37 37 37 38 38
18 18 18 18 18 18 19 19 19 20 21 21 20 19 20 21 22 22 23 25 27 28 29 30 31 32 33 33 34 35 37 37 37 37 37 37 38 38 38 38 38 39 39 38
21 21 21 21 21 21 21 21 22 22 23 22 22 20 21 22 23 23 25 26 27 29 31 32 33 34 35 35 36 36 37 38 38 39 39 39 38 39 39 39 39 39 39 39
24 24 24 24 24 23 24 24 25 25 25 25 25 24 23 24 24 25 26 28 29 30 31 32 34 35 36 37 37 38 38 39 39 40 40 40 40 40 41 41 41 41 40 40
27 27 27 27 27 26 26 27 28 28 29 28 28 27 26 26 27 27 28 30 30 31 32 33 34 35 36 37 37 38 39 39 40 40 40 41 41 42 42 42 41 42 41 41
29 29 29 29 30 30 29 30 30 31 31 31 30 30 29 29 30 30 31 32 32 32 33 34 35 36 37 38 39 39 40 40 41 41 42 43 43 43 43 43 43 43 43 42
32 32 32 32 32 33 33 33 33 34 34 35 33 32 32 33 33 33 34 34 34 34 34 35 35 37 38 39 40 40 41 41 42 42 43 44 44 44 44 44 44 44 44 44
36 36 35 35 36 36 36 35 36 36 36 36 36 34 34 36 36 35 35 36 36 36 36 37 37 37 38 39 39 40 41 42 43 43 44 43 43 44 44 44 44 44 45 45
39 39 39 39 38 40 39 37 37 37 36 37 37 36 37 37 37 37 37 38 37 37 37 37 38 38 39 39 40 40 41 41 42 42 43 44 44 44 45 45 45 45 45 45
41 42 42 42 42 42 40 39 39 39 38 39 39 38 39 39 39 39 39 39 38 38 38 38 38 38 39 39 40 40 40 41 41 42 42 43 44 45 45 46 46 47 47 47
43 43 44 45 45 45 42 41 41 42 41 40 40 40 40 40 40 40 40 40 40 40 40 40 40 40 40 40 41 41 41 41 42 42 43 43 44 45 46 47 48 48 48 48
44 45 46 46 47 48 44 44 44 45 44 42 42 41 41 41 41 41 41 41 41 42 42 42 42 42 41 41 41 41 41 42 42 42 43 44 45 46 46 47 47 48 48 48
46 46 47 47 48 49 46 46 46 45 45 44 44 44 44 44 44 43 43 43 43 43 43 43 43 43 43 43 43 43 43 43 43 44 45 46 46 47 47 47 47 48 48 48
47 48 48 48 49 49 47 47 47 48 48 47 47 46 46 46 45 45 45 45 45 45 45 45 45 45 45 45 45 45 45 45 45 46 47 47 47 47 47 47 47 47 47 47
49 49 49 50 50 49 49 49 49 49 49 49 48 48 48 47 47 47 47 47 47 46 46 46 46 46 46 47 47 47 47 46 46 46 47 47 47 47 47 47 47 47 47 47
50 49 50 51 50 50 50 50 50 51 51 50 50 49 49 48 48 48 48 48 49 48 48 47 47 47 47 47 47 47 47 47 46 46 47 47 47 47 47 47 47 47 46 46
51 51 52 52 51 50 50 51 52 52 52 51 51 50 50 50 49 48 48 49 49 48 48 48 48 48 47 47 47 47 47 46 46 46 47 47 47 47 47 47 46 46 46 46
50 51 53 53 50 51 51 51 51 51 51 52 52 51 50 50 49 49 49 49 48 48 48 48 48 48 47 47 47 47 47 47 47 47 47 46 46 46 46 46 46 46 46 46
Wind_Direction
323 311 300 296 283 269 264 258 253 250 255 254 251 247 248 250 249 248 246 247 250 250 248 247 248 250 250 248 246 250 252 253 254 254 256 257 259 260 261 263 263 261 261 263
319 312 310 298 291 280 275 266 262 260 261 258 254 252 253 254 253 250 250 252 254 255 252 249 249 251 252 252 251 251 253 256 256 255 256 257 260 261 262 263 264 264 264 265
320 319 312 301 296 288 281 276 271 267 265 263 260 256 255 255 256 255 254 254 255 256 255 253 252 252 253 253 254 254 256 257 258 258 258 258 260 261 262 261 262 263 264 266
310 311 309 304 298 291 286 281 277 273 267 263 261 259 256 256 258 259 257 257 257 257 257 255 254 254 254 254 256 257 258 260 260 261 261 261 260 262 262 262 261 261 263 265
305 306 303 301 298 295 290 286 280 277 272 267 264 262 261 260 259 259 260 259 259 259 258 258 258 257 257 257 258 260 261 262 261 261 262 263 262 262 263 262 262 263 265 267
302 301 299 297 296 296 293 290 284 280 277 274 272 267 265 264 261 260 261 260 260 261 260 259 259 259 259 259 260 261 262 263 262 261 261 262 262 264 265 265 265 265 267 268
301 299 298 298 296 296 295 293 290 285 279 278 277 273 269 266 262 261 261 262 262 262 263 262 260 260 260 261 262 263 263 264 264 263 261 261 262 264 266 268 267 267 269 270
299 296 295 295 295 295 294 294 292 289 284 279 277 276 275 270 265 262 263 264 264 263 264 263 263 262 261 262 263 264 265 266 266 266 264 263 264 266 267 269 269 269 270 271
297 294 293 292 292 293 292 291 291 290 290 287 283 281 278 276 271 266 264 264 265 265 265 265 265 264 263 263 263 264 265 266 267 268 268 267 267 269 270 271 271 271 271 271
294 293 291 290 290 290 291 292 292 292 293 291 289 287 284 280 276 272 268 267 266 265 266 266 266 266 265 265 264 264 264 265 266 267 268 269 270 270 271 271 271 272 272 272
292 291 291 290 289 289 289 289 289 289 290 290 290 289 288 285 280 275 271 271 270 269 267 267 267 267 267 266 266 265 264 265 266 266 267 268 269 270 270 271 272 273 273 274
292 290 290 289 289 289 288 288 287 287 287 287 288 290 289 286 282 278 275 274 273 272 270 268 269 269 269 268 268 267 266 266 266 266 267 268 268 269 270 271 272 273 274 275
290 290 289 288 288 288 288 287 287 286 285 285 287 289 287 284 282 279 277 277 276 275 273 272 271 270 269 269 268 268 267 267 267 266 266 267 268 269 270 271 271 272 273 274
288 288 288 288 288 287 286 285 284 284 285 284 285 285 284 282 280 279 278 278 278 277 276 275 274 272 271 270 269 269 268 267 267 267 267 267 268 269 269 270 271 272 273 274
287 286 285 285 285 284 284 283 283 284 284 284 284 283 282 280 279 279 279 278 277 277 276 276 276 274 273 272 271 270 270 269 269 269 269 269 269 269 270 271 272 273 273 274
284 283 284 283 283 283 282 282 283 283 284 285 284 283 281 279 279 279 279 279 279 278 278 278 278 277 276 275 273 273 272 272 271 271 270 270 269 270 270 271 272 272 273 274
282 282 283 283 282 282 282 283 283 283 284 284 284 284 281 280 280 280 280 280 280 279 280 280 279 278 277 276 275 275 274 274 273 272 271 270 270 270 271 271 271 272 274 275
281 282 282 282 282 281 285 283 283 283 282 283 283 283 282 281 280 280 279 279 279 280 280 281 281 280 279 277 276 275 275 274 274 273 273 272 271 271 271 272 272 273 274 275
280 281 281 282 281 281 281 283 282 282 282 282 283 282 281 281 280 280 280 280 280 280 280 280 280 280 279 278 277 276 276 276 276 275 274 273 273 273 273 273 274 274 274 275
280 280 280 281 281 282 283 282 282 281 281 281 281 280 279 280 280 280 280 280 280 280 280 279 279 279 278 278 277 277 276 276 276 276 276 275 275 274 274 274 275 275 275 275
278 279 279 280 281 282 284 284 283 281 282 281 280 279 278 279 279 279 279 279 279 279 278 278 279 278 278 277 276 276 276 276 276 276 276 276 276 275 275 275 276 276 275 275
278 278 278 278 279 282 283 281 280 280 280 280 279 278 278 278 279 278 278 278 278 278 278 277 278 278 278 277 277 277 277 277 277 276 276 277 277 276 276 276 276 277 277 277
276 277 277 277 278 280 280 280 279 279 279 278 278 278 278 278 278 277 277 276 277 277 277 277 278 278 278 278 278 278 278 278 278 277 277 278 277 277 277 277 278 278 278 277
276 276 276 276 277 277 277 277 277 277 277 277 277 277 277 277 277 277 276 276 276 276 277 278 278 279 278 278 279 279 279 279 278 278 278 278 277 277 277 277 278 278 278 278
276 276 275 276 277 276 275 275 275 276 276 277 277 277 278 278 277 277 277 277 277 277 277 277 278 278 278 278 278 279 279 278 279 279 278 278 277 276 277 277 278 278 277 277
276 275 276 276 276 275 275 275 275 275 276 276 277 277 278 278 278 278 279 279 278 279 279 279 279 278 278 278 279 279 279 278 278 278 278 277 277 277 277 277 277 278 278 277
Height
5718 5719 5718 5718 5718 5719 5719 5720 5720 5721 5722 5723 5724 5726 5728 5729 5730 5733 5735 5737 5739 5740 5742 5743 5745 5747 5749 5751 5752 5754 5755 5756 5756 5758 5760 5761 5762 5763 5764 5765 5766 5766 5767 5767
5720 5719 5719 5718 5717 5718 5718 5719 5719 5720 5720 5721 5722 5724 5725 5726 5728 5730 5732 5733 5735 5736 5737 5738 5740 5742 5743 5744 5746 5747 5749 5750 5750 5752 5753 5754 5755 5756 5757 5758 5758 5758 5759 5759
5720 5720 5719 5718 5718 5718 5718 5718 5718 5718 5718 5719 5720 5722 5723 5724 5725 5726 5728 5729 5731 5732 5733 5734 5735 5736 5737 5738 5739 5741 5742 5743 5744 5745 5746 5747 5748 5749 5750 5750 5751 5751 5751 5752
5720 5719 5719 5718 5718 5717 5717 5717 5716 5716 5716 5717 5718 5719 5721 5721 5722 5723 5724 5725 5726 5727 5727 5729 5730 5730 5731 5732 5733 5735 5735 5736 5737 5738 5739 5739 5740 5741 5742 5743 5743 5743 5744 5744
5720 5719 5718 5718 5717 5716 5716 5715 5715 5714 5714 5714 5715 5715 5718 5717 5718 5719 5719 5720 5721 5722 5722 5723 5724 5725 5726 5727 5727 5728 5729 5729 5730 5731 5731 5732 5732 5733 5733 5734 5735 5735 5735 5735
5719 5718 5717 5716 5716 5715 5714 5714 5713 5712 5712 5712 5712 5712 5713 5713 5714 5714 5714 5715 5716 5717 5717 5718 5718 5719 5720 5720 5721 5721 5722 5722 5723 5723 5724 5725 5725 5725 5725 5726 5726 5727 5727 5726
5718 5717 5716 5715 5714 5713 5712 5712 5711 5709 5709 5709 5708 5707 5709 5708 5709 5709 5709 5710 5710 5711 5711 5712 5712 5713 5713 5714 5715 5715 5715 5716 5716 5717 5717 5717 5717 5717 5718 5718 5718 5718 5718 5717
5716 5715 5714 5712 5712 5711 5709 5709 5708 5706 5705 5705 5704 5703 5705 5704 5703 5703 5704 5704 5704 5705 5705 5705 5705 5706 5707 5707 5708 5708 5708 5708 5709 5709 5709 5709 5709 5709 5710 5709 5709 5709 5709 5709
5713 5712 5711 5709 5708 5708 5706 5705 5704 5703 5701 5700 5699 5699 5699 5698 5698 5698 5698 5698 5698 5698 5699 5699 5699 5699 5699 5700 5700 5701 5701 5701 5701 5701 5701 5701 5701 5701 5701 5701 5701 5700 5700 5700
5709 5708 5708 5706 5705 5704 5703 5701 5700 5698 5696 5695 5695 5694 5694 5693 5693 5693 5692 5692 5692 5691 5691 5691 5691 5692 5692 5692 5692 5692 5693 5693 5693 5692 5692 5692 5692 5692 5692 5692 5692 5691 5691 5690
5705 5704 5704 5702 5701 5700 5699 5697 5695 5693 5691 5690 5689 5692 5689 5687 5686 5686 5686 5685 5685 5684 5684 5683 5683 5683 5683 5683 5683 5683 5683 5683 5684 5684 5684 5684 5683 5683 5683 5682 5682 5682 5681 5681
5700 5699 5698 5697 5696 5694 5693 5691 5690 5688 5687 5684 5683 5687 5683 5681 5680 5679 5678 5678 5677 5676 5676 5675 5675 5674 5674 5674 5674 5674 5674 5674 5674 5674 5674 5674 5674 5673 5673 5673 5672 5671 5671 5670
5694 5692 5691 5691 5691 5689 5686 5685 5683 5681 5680 5678 5677 5681 5676 5674 5672 5671 5670 5669 5669 5668 5667 5666 5666 5665 5665 5664 5664 5664 5664 5664 5663 5663 5663 5663 5663 5663 5662 5662 5662 5661 5660 5660
5687 5686 5686 5685 5682 5680 5679 5678 5676 5674 5672 5671 5671 5671 5670 5666 5664 5663 5662 5661 5660 5659 5659 5658 5657 5656 5655 5655 5654 5653 5653 5653 5653 5653 5652 5652 5652 5652 5651 5651 5650 5650 5649 5649
5679 5678 5677 5676 5674 5672 5671 5670 5668 5665 5664 5662 5663 5661 5661 5657 5656 5654 5653 5652 5651 5650 5649 5648 5647 5646 5645 5644 5643 5643 5642 5642 5642 5641 5641 5640 5640 5640 5639 5639 5639 5638 5638 5637
5669 5669 5668 5667 5665 5663 5662 5662 5659 5657 5655 5653 5652 5652 5650 5648 5646 5645 5644 5642 5641 5640 5639 5638 5637 5636 5634 5633 5633 5632 5631 5630 5630 5629 5629 5628 5628 5628 5627 5627 5627 5626 5626 5625
5660 5658 5657 5656 5655 5652 5653 5654 5650 5648 5646 5644 5642 5642 5639 5638 5636 5635 5634 5632 5631 5630 5629 5627 5626 5625 5624 5623 5622 5621 5620 5619 5618 5617 5617 5616 5616 5615 5615 5614 5614 5614 5613 5612
5650 5647 5644 5643 5643 5641 5646 5642 5640 5637 5636 5634 5632 5630 5628 5627 5626 5624 5623 5621 5620 5619 5618 5616 5615 5614 5613 5611 5610 5609 5608 5607 5606 5605 5604 5603 5603 5603 5602 5602 5601 5601 5600 5599
5639 5636 5633 5631 5629 5629 5633 5631 5627 5625 5625 5623 5621 5619 5617 5615 5614 5614 5612 5610 5609 5607 5606 5605 5603 5602 5601 5599 5598 5597 5596 5595 5594 5593 5592 5591 5590 5590 5589 5588 5587 5587 5586 5586
5627 5624 5622 5619 5616 5616 5621 5618 5614 5613 5612 5612 5609 5607 5606 5604 5603 5603 5600 5599 5597 5596 5594 5593 5591 5590 5589 5587 5586 5585 5584 5583 5582 5581 5579 5578 5577 5576 5575 5574 5573 5573 5572 5572
5614 5611 5610 5607 5603 5604 5607 5604 5601 5600 5601 5598 5596 5594 5593 5592 5591 5590 5588 5587 5585 5583 5582 5580 5579 5578 5576 5575 5573 5572 5571 5570 5569 5568 5566 5565 5563 5562 5561 5560 5559 5558 5558 5557
5600 5598 5597 5595 5592 5595 5593 5590 5588 5587 5585 5584 5582 5581 5580 5579 5577 5576 5575 5573 5572 5570 5569 5568 5566 5565 5563 5562 5560 5559 5558 5557 5555 5554 5552 5551 5550 5548 5547 5546 5545 5544 5543 5543
5586 5586 5583 5582 5582 5581 5578 5575 5573 5572 5571 5569 5568 5567 5566 5565 5564 5563 5561 5560 5558 5557 5555 5554 5553 5552 5550 5548 5547 5546 5544 5543 5541 5540 5538 5537 5536 5534 5533 5532 5531 5530 5529 5528
5571 5570 5568 5567 5567 5566 5563 5561 5559 5557 5556 5555 5554 5553 5551 5550 5549 5548 5547 5545 5544 5543 5541 5540 5539 5538 5536 5534 5533 5531 5530 5528 5527 5526 5524 5523 5521 5520 5519 5518 5516 5515 5515 5514
5558 5555 5552 5551 5553 5550 5549 5547 5544 5543 5542 5541 5540 5538 5537 5536 5535 5533 5532 5531 5529 5528 5527 5525 5524 5523 5522 5520 5519 5517 5515 5514 5513 5511 5510 5508 5507 5506 5505 5504 5502 5501 5501 5499
5545 5541 5537 5536 5537 5533 5534 5532 5530 5528 5528 5527 5526 5525 5523 5521 5520 5519 5518 5516 5515 5513 5512 5511 5509 5508 5507 5506 5504 5503 5500 5499 5498 5497 5495 5493 5492 5491 5490 5489 5489 5487 5486 5486